Time,TemperatureF,DewpointF,PressureIn,WindDirection,WindDirectionDegrees,WindSpeedMPH,WindSpeedGustMPH,Humidity,HourlyPrecipIn,Conditions,Clouds,dailyrainin,SolarRadiationWatts/m^2,SoftwareType,DateUTC
2013-12-31 00:02:00,13.0,5.0,-100.00,North,9,4.0,13.0,70,0.00,,,0.07,0.000000,,2013-12-31 05:02:00,
2013-12-31 00:12:00,13.0,5.0,-100.00,North,9,4.0,13.0,70,0.00,,,0.07,0.000000,,2013-12-31 05:12:00,
2013-12-31 00:42:00,13.0,6.0,-100.00,North,10,2.0,7.0,73,0.00,,,0.03,0.000000,,2013-12-31 05:42:00,
2013-12-31 00:53:00,13.0,6.0,-100.00,North,10,2.0,7.0,73,0.00,,,0.03,0.000000,,2013-12-31 05:53:00,
2013-12-31 01:02:00,13.0,6.0,-100.00,North,10,2.0,7.0,73,0.00,,,0.03,0.000000,,2013-12-31 06:02:00,
2013-12-31 01:12:00,13.0,6.0,-100.00,North,10,2.0,7.0,73,0.00,,,0.03,0.000000,,2013-12-31 06:12:00,
2013-12-31 01:43:00,13.0,7.0,-100.00,North,358,4.0,7.0,75,0.00,,,0.02,0.000000,,2013-12-31 06:43:00,
2013-12-31 01:52:00,13.0,7.0,-100.00,North,358,4.0,7.0,75,0.00,,,0.02,0.000000,,2013-12-31 06:52:00,
2013-12-31 02:02:00,13.0,7.0,-100.00,North,358,4.0,7.0,75,0.00,,,0.02,0.000000,,2013-12-31 07:02:00,
2013-12-31 02:12:00,13.0,7.0,-100.00,North,358,4.0,7.0,75,0.00,,,0.02,0.000000,,2013-12-31 07:12:00,
2013-12-31 02:42:00,13.0,6.0,-100.00,NNW,343,3.0,7.0,74,0.00,,,0.01,0.000000,,2013-12-31 07:42:00,
2013-12-31 02:52:00,13.0,6.0,-100.00,NNW,343,3.0,7.0,74,0.00,,,0.01,0.000000,,2013-12-31 07:52:00,
2013-12-31 03:02:00,13.0,6.0,-100.00,NNW,343,3.0,7.0,74,0.00,,,0.01,0.000000,,2013-12-31 08:02:00,
2013-12-31 03:12:00,13.0,6.0,-100.00,NNW,343,3.0,7.0,74,0.00,,,0.01,0.000000,,2013-12-31 08:12:00,
2013-12-31 03:42:00,13.0,7.0,-100.00,NNW,339,6.0,9.0,76,0.00,,,0.00,0.000000,,2013-12-31 08:42:00,
2013-12-31 03:52:00,13.0,7.0,-100.00,NNW,339,6.0,9.0,76,0.00,,,0.00,0.000000,,2013-12-31 08:52:00,
2013-12-31 04:02:00,13.0,7.0,-100.00,NNW,339,6.0,9.0,76,0.00,,,0.00,0.000000,,2013-12-31 09:02:00,
2013-12-31 04:11:00,13.0,7.0,-100.00,NNW,339,6.0,9.0,76,0.00,,,0.00,0.000000,,2013-12-31 09:11:00,
2013-12-31 04:43:00,14.0,8.0,-100.00,NNW,331,4.0,9.0,78,0.00,,,0.00,0.000000,,2013-12-31 09:43:00,
2013-12-31 04:53:00,14.0,8.0,-100.00,NNW,331,4.0,9.0,78,0.00,,,0.00,0.000000,,2013-12-31 09:53:00,
2013-12-31 05:02:00,14.0,8.0,-100.00,NNW,331,4.0,9.0,78,0.00,,,0.00,0.000000,,2013-12-31 10:02:00,
2013-12-31 05:13:00,14.0,8.0,-100.00,NNW,331,4.0,9.0,78,0.00,,,0.00,0.000000,,2013-12-31 10:13:00,
2013-12-31 05:43:00,14.0,9.0,-100.00,NNW,328,3.0,8.0,81,0.00,,,0.00,0.000000,,2013-12-31 10:43:00,
2013-12-31 05:53:00,14.0,9.0,-100.00,NNW,328,3.0,8.0,81,0.00,,,0.00,0.000000,,2013-12-31 10:53:00,
2013-12-31 06:02:00,14.0,9.0,-100.00,NNW,328,3.0,8.0,81,0.00,,,0.00,0.000000,,2013-12-31 11:02:00,
2013-12-31 06:12:00,14.0,9.0,-100.00,NNW,328,3.0,8.0,81,0.00,,,0.00,0.000000,,2013-12-31 11:12:00,
2013-12-31 06:43:00,14.0,11.0,-100.00,WNW,285,5.0,8.0,88,0.00,,,0.00,0.000000,,2013-12-31 11:43:00,
2013-12-31 06:53:00,14.0,11.0,-100.00,WNW,285,5.0,8.0,88,0.00,,,0.00,0.000000,,2013-12-31 11:53:00,
2013-12-31 07:02:00,14.0,11.0,-100.00,WNW,285,5.0,8.0,88,0.00,,,0.00,0.000000,,2013-12-31 12:02:00,
2013-12-31 07:11:00,14.0,11.0,-100.00,WNW,285,5.0,8.0,88,0.00,,,0.00,0.000000,,2013-12-31 12:11:00,
2013-12-31 07:42:00,13.0,11.0,-100.00,West,274,6.0,9.0,91,0.00,,,0.00,0.000000,,2013-12-31 12:42:00,
2013-12-31 07:52:00,13.0,11.0,-100.00,West,274,6.0,9.0,91,0.00,,,0.00,0.000000,,2013-12-31 12:52:00,
2013-12-31 08:02:00,13.0,11.0,-100.00,West,274,6.0,9.0,91,0.00,,,0.00,0.000000,,2013-12-31 13:02:00,
2013-12-31 08:12:00,13.0,11.0,-100.00,West,274,6.0,9.0,91,0.00,,,0.00,0.000000,,2013-12-31 13:12:00,
2013-12-31 08:42:00,15.0,13.0,-100.00,WNW,293,8.0,12.0,92,0.00,,,0.00,9.000000,,2013-12-31 13:42:00,
2013-12-31 08:52:00,15.0,13.0,-100.00,WNW,293,8.0,12.0,92,0.00,,,0.00,9.000000,,2013-12-31 13:52:00,
2013-12-31 09:02:00,15.0,13.0,-100.00,WNW,293,8.0,12.0,92,0.00,,,0.00,9.000000,,2013-12-31 14:02:00,
2013-12-31 09:11:00,15.0,13.0,-100.00,WNW,293,8.0,12.0,92,0.00,,,0.00,9.000000,,2013-12-31 14:11:00,
2013-12-31 09:43:00,18.0,16.0,-100.00,NW,311,5.0,14.0,92,0.00,,,0.00,59.000000,,2013-12-31 14:43:00,
2013-12-31 09:53:00,18.0,16.0,-100.00,NW,311,5.0,14.0,92,0.00,,,0.00,59.000000,,2013-12-31 14:53:00,
2013-12-31 10:02:00,18.0,16.0,-100.00,NW,311,5.0,14.0,92,0.00,,,0.00,59.000000,,2013-12-31 15:02:00,
2013-12-31 10:11:00,18.0,16.0,-100.00,NW,311,5.0,14.0,92,0.00,,,0.00,59.000000,,2013-12-31 15:11:00,
2013-12-31 10:44:00,21.0,19.0,-100.00,NNW,333,11.0,21.0,91,0.00,,,0.00,107.000000,,2013-12-31 15:44:00,
2013-12-31 10:53:00,21.0,19.0,-100.00,NNW,333,11.0,21.0,91,0.00,,,0.00,107.000000,,2013-12-31 15:53:00,
2013-12-31 11:03:00,21.0,19.0,-100.00,NNW,333,11.0,21.0,91,0.00,,,0.00,107.000000,,2013-12-31 16:03:00,
2013-12-31 11:13:00,21.0,19.0,-100.00,NNW,333,11.0,21.0,91,0.00,,,0.00,107.000000,,2013-12-31 16:13:00,
2013-12-31 11:43:00,21.0,17.0,-100.00,North,352,14.0,26.0,85,0.00,,,0.00,152.000000,,2013-12-31 16:43:00,
2013-12-31 11:53:00,21.0,17.0,-100.00,North,352,14.0,26.0,85,0.00,,,0.00,152.000000,,2013-12-31 16:53:00,
2013-12-31 12:02:00,21.0,17.0,-100.00,North,352,14.0,26.0,85,0.00,,,0.00,152.000000,,2013-12-31 17:02:00,
2013-12-31 12:12:00,21.0,17.0,-100.00,North,352,14.0,26.0,85,0.00,,,0.00,152.000000,,2013-12-31 17:12:00,
2013-12-31 12:42:00,21.0,16.0,-100.00,North,0,15.0,28.0,80,0.00,,,0.00,175.000000,,2013-12-31 17:42:00,
2013-12-31 12:53:00,21.0,16.0,-100.00,North,0,15.0,28.0,80,0.00,,,0.00,175.000000,,2013-12-31 17:53:00,
2013-12-31 13:02:00,21.0,16.0,-100.00,North,0,15.0,28.0,80,0.00,,,0.00,175.000000,,2013-12-31 18:02:00,
2013-12-31 13:12:00,21.0,16.0,-100.00,North,0,15.0,28.0,80,0.00,,,0.00,175.000000,,2013-12-31 18:12:00,
2013-12-31 13:42:00,20.0,9.0,-100.00,North,1,18.0,31.0,63,0.00,,,0.00,294.000000,,2013-12-31 18:42:00,
2013-12-31 13:53:00,20.0,9.0,-100.00,North,1,18.0,31.0,63,0.00,,,0.00,294.000000,,2013-12-31 18:53:00,
2013-12-31 14:02:00,20.0,9.0,-100.00,North,1,18.0,31.0,63,0.00,,,0.00,294.000000,,2013-12-31 19:02:00,
2013-12-31 14:12:00,20.0,9.0,-100.00,North,1,18.0,31.0,63,0.00,,,0.00,294.000000,,2013-12-31 19:12:00,
2013-12-31 14:43:00,20.0,10.0,-100.00,North,359,14.0,32.0,64,0.00,,,0.00,158.000000,,2013-12-31 19:43:00,
2013-12-31 14:53:00,20.0,10.0,-100.00,North,359,14.0,32.0,64,0.00,,,0.00,158.000000,,2013-12-31 19:53:00,
2013-12-31 15:02:00,20.0,10.0,-100.00,North,359,14.0,32.0,64,0.00,,,0.00,158.000000,,2013-12-31 20:02:00,
2013-12-31 15:11:00,20.0,10.0,-100.00,North,359,14.0,32.0,64,0.00,,,0.00,158.000000,,2013-12-31 20:11:00,
2013-12-31 15:42:00,17.0,6.0,-100.00,North,2,19.0,34.0,60,0.00,,,0.00,147.000000,,2013-12-31 20:42:00,
2013-12-31 15:53:00,17.0,6.0,-100.00,North,2,19.0,34.0,60,0.00,,,0.00,147.000000,,2013-12-31 20:53:00,
2013-12-31 16:02:00,17.0,6.0,-100.00,North,2,19.0,34.0,60,0.00,,,0.00,147.000000,,2013-12-31 21:02:00,
2013-12-31 16:12:00,17.0,6.0,-100.00,North,2,19.0,34.0,60,0.00,,,0.00,147.000000,,2013-12-31 21:12:00,
2013-12-31 16:43:00,15.0,5.0,-100.00,North,8,15.0,32.0,63,0.00,,,0.00,87.000000,,2013-12-31 21:43:00,
2013-12-31 16:53:00,15.0,5.0,-100.00,North,8,15.0,32.0,63,0.00,,,0.00,87.000000,,2013-12-31 21:53:00,
2013-12-31 17:03:00,15.0,5.0,-100.00,North,8,15.0,32.0,63,0.00,,,0.00,87.000000,,2013-12-31 22:03:00,
2013-12-31 17:13:00,15.0,5.0,-100.00,North,8,15.0,32.0,63,0.00,,,0.00,87.000000,,2013-12-31 22:13:00,
2013-12-31 17:43:00,13.0,4.0,-100.00,North,8,14.0,35.0,66,0.00,,,0.00,7.000000,,2013-12-31 22:43:00,
2013-12-31 17:53:00,13.0,4.0,-100.00,North,8,14.0,35.0,66,0.00,,,0.00,7.000000,,2013-12-31 22:53:00,
2013-12-31 18:02:00,13.0,4.0,-100.00,North,8,14.0,35.0,66,0.00,,,0.00,7.000000,,2013-12-31 23:02:00,
2013-12-31 18:12:00,13.0,4.0,-100.00,North,8,14.0,35.0,66,0.00,,,0.00,7.000000,,2013-12-31 23:12:00,
2013-12-31 18:43:00,13.0,5.0,-100.00,North,4,16.0,31.0,69,0.00,,,0.00,0.000000,,2013-12-31 23:43:00,
2013-12-31 18:53:00,13.0,5.0,-100.00,North,4,16.0,31.0,69,0.00,,,0.00,0.000000,,2013-12-31 23:53:00,
2013-12-31 19:02:00,13.0,5.0,-100.00,North,4,16.0,31.0,69,0.00,,,0.00,0.000000,,2014-01-01 00:02:00,
2013-12-31 19:12:00,13.0,5.0,-100.00,North,4,16.0,31.0,69,0.00,,,0.00,0.000000,,2014-01-01 00:12:00,
2013-12-31 19:42:00,12.0,3.0,-100.00,North,8,13.0,27.0,66,-99.99,,,-99.99,0.000000,,2014-01-01 00:42:00,
2013-12-31 19:52:00,12.0,3.0,-100.00,North,8,13.0,27.0,66,-99.99,,,-99.99,0.000000,,2014-01-01 00:52:00,
2013-12-31 20:02:00,12.0,3.0,-100.00,North,8,13.0,27.0,66,-99.99,,,-99.99,0.000000,,2014-01-01 01:02:00,
2013-12-31 20:11:00,12.0,3.0,-100.00,North,8,13.0,27.0,66,-99.99,,,-99.99,0.000000,,2014-01-01 01:11:00,
2013-12-31 20:42:00,12.0,4.0,-100.00,North,6,12.0,27.0,70,0.00,,,-99.99,0.000000,,2014-01-01 01:42:00,
2013-12-31 20:52:00,12.0,4.0,-100.00,North,6,12.0,27.0,70,0.00,,,-99.99,0.000000,,2014-01-01 01:52:00,
2013-12-31 21:02:00,12.0,4.0,-100.00,North,6,12.0,27.0,70,0.00,,,-99.99,0.000000,,2014-01-01 02:02:00,
2013-12-31 21:12:00,12.0,4.0,-100.00,North,6,12.0,27.0,70,0.00,,,-99.99,0.000000,,2014-01-01 02:12:00,
2013-12-31 21:42:00,13.0,6.0,-100.00,North,5,13.0,29.0,73,0.00,,,-99.99,0.000000,,2014-01-01 02:42:00,
2013-12-31 21:52:00,13.0,6.0,-100.00,North,5,13.0,29.0,73,0.00,,,-99.99,0.000000,,2014-01-01 02:52:00,
2013-12-31 22:02:00,13.0,6.0,-100.00,North,5,13.0,29.0,73,0.00,,,-99.99,0.000000,,2014-01-01 03:02:00,
2013-12-31 22:12:00,13.0,6.0,-100.00,North,5,13.0,29.0,73,0.00,,,-99.99,0.000000,,2014-01-01 03:12:00,
2013-12-31 22:44:00,13.0,7.0,-100.00,North,8,11.0,25.0,75,0.00,,,-99.99,0.000000,,2014-01-01 03:44:00,
2013-12-31 22:53:00,13.0,7.0,-100.00,North,8,11.0,25.0,75,0.00,,,-99.99,0.000000,,2014-01-01 03:53:00,
2013-12-31 23:03:00,13.0,7.0,-100.00,North,8,11.0,25.0,75,0.00,,,-99.99,0.000000,,2014-01-01 04:03:00,
2013-12-31 23:13:00,13.0,7.0,-100.00,North,8,11.0,25.0,75,0.00,,,-99.99,0.000000,,2014-01-01 04:13:00,
2013-12-31 23:43:00,13.0,8.0,-100.00,North,3,12.0,23.0,80,0.00,,,-99.99,0.000000,,2014-01-01 04:43:00,
2013-12-31 23:53:00,13.0,8.0,-100.00,North,3,12.0,23.0,80,0.00,,,-99.99,0.000000,,2014-01-01 04:53:00,